Temp
25 24 25 24 24 25 25 25 25 25 25 25 25 25 26 26 26 26 26 26 26 26 26 26 26 27 27 26 26 26 26 26 26 25 25 25 25 25 25 25 25 25 25 25 25 25 25 25 25 26 26 26 26 26 26 26 26 26 26 25 25 25 25 25 23 23 25 26 25 25 25 25 25 25 25 25 26 26 25 25 25 26 26 26 25
25 25 25 25 25 25 25 25 25 25 25 25 25 25 26 26 26 26 26 26 26 27 27 27 27 27 27 26 26 26 26 26 26 25 25 25 25 25 25 25 25 25 25 25 25 25 25 25 25 25 25 25 25 25 25 25 25 25 26 25 25 25 25 25 24 23 24 25 25 25 25 25 25 25 25 25 25 25 25 25 25 25 25 26 25
25 25 25 25 25 25 25 25 25 25 25 25 26 26 26 26 26 26 26 27 27 27 27 27 27 27 27 27 27 26 26 26 26 26 26 26 26 26 25 25 25 25 25 25 25 25 25 25 25 25 25 25 25 25 25 25 25 25 25 25 25 25 25 25 24 24 24 24 25 25 25 25 25 25 25 25 25 25 25 25 24 24 25 25 25
25 25 25 25 25 25 25 25 25 25 25 26 26 26 26 26 27 27 27 27 27 27 27 27 27 27 26 25 25 24 24 24 25 26 26 26 26 26 25 25 25 25 25 25 25 25 25 25 25 25 25 25 25 25 25 25 25 25 25 25 25 25 25 25 25 24 24 24 24 24 24 24 24 25 25 24 24 24 24 24 24 24 24 24 25
25 25 25 25 25 25 25 25 25 26 26 26 26 26 26 27 27 27 27 27 27 27 27 26 25 24 23 23 23 23 23 22 22 23 25 25 26 26 26 25 25 25 25 25 25 25 25 25 25 25 25 25 25 25 25 25 25 25 25 25 25 25 25 25 25 24 24 24 24 24 24 24 24 25 24 24 24 24 24 24 24 24 24 24 24
25 25 25 25 25 25 25 25 26 26 26 26 26 26 27 27 27 27 27 27 27 27 26 24 23 23 23 24 24 25 25 24 24 24 24 24 25 25 26 25 25 25 25 25 25 25 25 25 25 25 25 25 25 25 25 25 24 24 24 24 24 24 25 25 24 24 24 23 23 23 24 24 24 24 24 24 24 24 24 24 24 24 24 24 24
25 25 26 25 25 26 26 26 26 26 26 26 26 26 27 27 27 27 27 27 27 27 25 25 25 24 25 25 25 25 25 25 25 24 24 25 24 25 25 25 25 25 25 25 25 25 25 25 25 25 25 25 25 25 24 24 24 24 24 24 24 24 24 24 24 24 23 23 23 23 23 23 23 23 24 24 23 23 23 24 24 25 24 24 24
26 26 26 26 26 26 26 26 26 26 26 27 26 27 27 27 27 27 27 27 27 27 26 26 25 25 25 25 25 25 25 24 24 24 25 25 24 24 25 25 25 25 25 25 25 25 25 25 25 25 24 24 24 24 24 24 24 24 23 23 23 23 23 23 23 23 23 22 22 22 22 23 23 23 23 23 23 23 23 23 23 24 24 24 24
26 26 26 26 26 26 26 26 27 27 27 27 27 27 27 27 27 27 28 27 27 27 27 26 26 25 25 25 25 25 24 24 24 24 25 25 25 25 25 25 25 25 25 25 25 25 25 25 25 24 24 24 24 24 23 23 23 23 23 23 23 23 22 22 22 22 22 22 22 22 22 22 22 22 22 22 23 23 23 23 22 23 23 23 23
25 26 26 26 26 27 27 27 27 27 27 27 27 27 27 27 27 28 28 27 27 27 27 26 26 26 26 25 25 25 25 24 24 24 24 25 25 25 25 25 25 25 25 25 24 24 24 24 24 24 24 24 24 23 23 23 23 22 22 22 22 22 22 21 21 21 21 21 21 21 21 21 21 22 22 22 22 22 22 22 22 22 22 21 22
24 24 25 25 26 26 26 27 27 27 27 27 27 28 27 27 28 28 27 27 27 27 27 26 26 26 26 25 25 25 25 24 24 24 24 24 25 25 25 25 25 25 25 25 24 24 24 24 24 24 24 24 23 23 23 22 22 22 22 22 22 22 21 21 21 21 21 21 21 21 21 21 21 21 21 21 21 21 21 21 21 21 20 20 21
24 24 24 25 25 25 26 26 27 27 27 27 27 28 28 27 27 28 27 27 27 27 26 26 26 26 26 25 25 25 25 25 24 24 24 24 24 24 24 24 25 25 25 25 24 24 24 24 24 23 23 23 22 22 22 22 22 22 22 22 22 22 21 21 20 20 20 21 21 21 21 20 20 20 20 20 20 20 21 21 21 20 20 20 20
24 24 24 25 25 25 25 26 27 27 27 27 27 28 27 27 27 27 27 27 26 26 26 26 26 26 25 25 25 25 24 24 24 24 24 24 24 24 24 24 25 25 25 24 24 24 24 23 23 22 22 22 21 21 22 22 22 22 22 22 21 21 21 20 20 20 20 20 20 19 19 19 19 19 20 19 19 20 20 20 20 20 20 20 20
24 24 24 25 25 26 25 26 26 27 27 27 27 27 27 27 27 27 27 26 26 26 26 25 25 25 25 25 25 24 24 24 24 24 24 24 24 24 24 24 24 24 24 24 23 23 23 22 22 21 21 21 21 21 22 22 22 21 21 21 21 20 20 19 19 19 19 19 19 19 19 19 18 19 19 19 19 19 19 20 20 20 20 20 20
24 24 25 25 26 26 26 26 26 26 26 26 26 26 26 26 26 26 26 26 26 26 25 25 25 25 25 25 24 23 23 23 23 23 23 23 23 23 23 23 23 23 23 23 23 22 22 21 21 21 21 21 22 22 22 21 21 21 21 21 20 19 19 19 19 19 19 19 19 18 18 18 18 18 18 18 19 19 19 19 19 20 20 20 20
24 24 25 26 25 25 26 26 26 25 25 25 25 25 25 25 25 25 25 25 24 24 23 23 24 24 23 23 22 22 21 22 22 22 22 22 23 23 23 23 23 23 22 22 22 21 21 21 21 21 22 22 22 22 21 21 21 21 20 20 19 19 18 18 18 18 18 18 18 18 18 18 18 18 18 18 18 19 19 19 19 19 19 19 19
23 24 25 25 25 25 25 25 24 24 24 23 24 24 23 23 23 23 23 23 22 21 21 21 21 21 21 20 20 20 20 20 20 21 21 22 22 22 22 22 22 22 21 21 21 21 21 21 21 22 22 22 21 21 21 21 21 20 19 19 19 18 18 18 18 18 18 18 18 18 18 18 18 18 18 18 18 18 18 19 19 19 19 19 19
22 23 24 24 24 24 24 23 23 22 22 22 22 22 22 22 22 21 20 20 20 20 20 19 19 19 19 19 19 19 19 19 19 20 20 21 21 21 21 21 21 20 20 20 21 21 21 21 22 22 21 21 21 21 21 20 20 19 19 18 18 18 18 18 18 19 19 19 19 19 18 19 19 19 18 19 19 19 18 18 18 18 18 18 19
21 21 22 22 22 22 22 22 22 22 22 21 22 22 21 20 20 20 19 19 19 19 18 18 18 17 17 17 17 17 17 18 18 19 19 20 20 20 20 20 19 19 20 20 20 20 21 21 21 21 21 20 20 20 20 19 19 19 18 18 18 17 17 18 18 18 18 18 18 18 18 19 19 18 18 18 19 19 18 18 18 18 18 18 18
19 19 20 21 21 21 21 21 21 21 21 21 20 20 20 19 19 20 19 18 18 18 17 16 16 16 16 16 16 16 16 16 17 18 18 19 19 18 18 18 18 18 19 20 20 20 20 21 21 20 20 20 20 20 19 19 19 18 18 18 17 17 17 17 18 18 18 18 18 18 18 18 18 18 18 18 18 18 18 18 18 18 18 18 18
19 19 19 20 20 20 20 20 20 20 20 20 20 19 19 19 19 19 18 18 17 17 16 16 16 15 15 16 16 15 15 15 16 16 17 17 17 17 17 17 17 17 18 19 19 19 20 20 20 20 20 20 20 19 19 19 19 18 18 18 17 17 17 17 17 17 17 17 17 17 17 17 17 18 17 17 17 17 17 17 17 17 18 17 18
18 19 19 19 19 19 19 19 20 20 20 19 19 18 18 19 18 18 18 17 17 17 16 16 16 14 14 15 16 15 15 15 15 15 15 16 16 17 17 17 18 18 19 19 19 19 19 20 20 19 19 19 19 19 19 19 19 18 18 17 17 17 18 18 17 17 17 17 17 17 16 17 17 17 17 17 17 17 17 17 17 17 17 17 17
18 18 18 18 19 19 19 19 19 19 19 18 18 17 17 18 18 18 17 17 16 16 15 15 15 14 13 14 15 14 14 14 14 14 14 15 16 17 18 18 19 20 20 20 20 19 20 20 20 19 19 19 19 19 19 19 18 18 18 18 18 18 18 18 18 17 17 17 16 16 16 16 16 16 16 17 17 17 17 17 17 17 17 17 17
18 18 18 18 18 17 18 18 18 18 18 18 18 18 17 17 17 17 17 16 16 16 15 15 15 14 14 14 14 14 14 14 14 14 14 15 16 16 17 18 18 19 20 20 20 19 19 20 20 20 19 19 19 19 18 18 18 18 18 18 18 18 18 18 18 17 17 16 16 16 16 16 16 16 16 17 17 17 17 17 17 17 17 17 17
17 17 17 17 17 17 17 17 17 17 18 18 18 18 17 17 17 17 17 17 16 16 16 15 15 15 15 14 14 14 15 15 14 14 15 16 16 16 17 17 18 19 19 19 20 20 20 20 20 20 19 19 19 18 18 18 18 18 18 17 17 17 17 17 17 17 16 16 16 16 16 16 16 16 16 16 17 17 17 17 17 17 17 17 17
17 16 16 16 17 17 17 17 17 17 17 17 17 17 17 17 17 17 17 17 16 16 16 15 15 15 15 15 15 15 15 16 15 16 16 16 16 17 17 18 18 19 19 19 19 20 20 21 21 20 20 19 19 18 18 18 18 17 17 17 17 17 17 17 17 16 16 16 16 16 16 16 16 16 16 16 16 16 17 17 17 17 17 17 17
16 16 16 16 16 16 17 17 17 17 17 17 17 17 17 17 17 17 17 16 16 16 16 15 16 16 16 16 16 16 16 16 16 16 16 17 17 17 18 18 19 19 19 20 20 20 20 21 21 20 20 19 19 18 18 18 17 17 17 17 17 16 16 16 16 16 16 16 16 15 15 16 16 16 16 16 15 16 16 16 16 16 16 16 16
16 16 16 16 16 17 17 17 17 17 17 17 17 17 17 18 17 17 17 17 17 17 16 16 17 17 17 16 16 16 16 16 16 16 17 17 17 18 18 18 19 20 20 20 20 20 20 20 20 19 19 19 18 17 17 17 17 17 16 16 16 16 16 16 16 16 16 16 16 15 15 15 15 15 15 15 15 15 15 15 15 15 15 15 14
16 16 16 17 17 17 17 18 18 18 17 17 17 17 18 18 18 18 17 18 18 18 17 17 17 17 17 17 16 16 16 16 16 17 17 18 18 18 18 18 19 19 20 20 20 20 20 19 18 18 18 17 17 16 16 16 16 16 16 16 16 16 16 16 16 15 15 15 15 15 14 14 14 14 14 14 14 14 14 14 14 14 15 14 14
16 16 16 16 16 17 17 17 18 18 18 18 18 17 18 18 18 18 18 18 18 18 18 18 18 17 17 17 16 16 16 16 16 17 18 18 18 18 18 18 19 19 20 20 20 20 19 18 17 17 17 16 16 16 16 16 16 16 16 16 16 16 16 16 15 15 14 14 14 14 14 13 13 13 13 13 13 13 14 14 14 14 14 14 13
16 16 16 16 17 17 17 17 18 18 18 18 18 18 18 18 18 18 18 18 18 18 18 17 17 17 17 16 16 16 16 17 17 18 18 18 18 18 19 18 19 19 19 19 19 19 18 18 17 17 17 17 16 16 16 16 16 16 15 15 15 15 15 15 15 14 14 14 14 13 13 13 13 13 13 13 13 13 13 13 13 13 13 13 13
17 17 17 17 18 18 18 18 19 18 18 19 19 18 18 17 17 17 17 18 18 18 17 17 17 17 17 17 17 17 17 17 18 18 18 18 18 18 19 19 19 19 19 19 19 18 18 18 17 17 17 16 16 16 16 16 16 15 15 15 15 14 14 14 14 14 14 14 13 13 13 13 12 12 12 12 12 13 13 13 13 13 13 13 13
18 18 18 18 18 18 18 19 19 19 19 19 19 19 18 18 17 16 16 17 17 17 17 17 17 17 17 17 17 17 18 18 18 18 18 18 18 18 18 18 18 18 19 18 18 17 17 17 17 17 16 16 16 16 16 15 15 15 15 15 15 14 14 14 14 14 14 13 13 13 12 12 12 12 12 12 12 12 12 12 12 12 12 12 12
18 18 18 18 18 18 18 19 19 19 19 19 19 19 19 18 18 17 17 17 17 17 17 17 17 17 17 17 17 18 18 18 18 18 18 18 18 18 18 18 18 18 18 18 18 17 17 16 16 16 16 16 16 15 15 15 15 15 15 15 14 14 14 14 14 14 13 13 13 12 12 12 12 12 11 11 12 12 12 12 12 12 12 12 12
18 18 18 18 18 18 18 18 18 18 18 18 19 19 19 19 18 18 17 17 17 17 17 17 17 17 17 17 17 18 18 18 18 18 18 18 18 18 18 18 18 17 17 18 17 17 17 16 16 16 16 16 15 15 15 15 15 15 14 14 13 13 13 13 13 13 13 12 12 12 11 11 11 11 11 11 11 11 11 11 11 11 11 11 11
19 19 19 19 19 19 18 18 18 18 18 18 18 18 18 18 18 18 17 17 17 17 17 17 17 17 17 17 17 17 17 17 17 17 17 18 18 18 17 17 17 17 17 17 17 16 16 16 16 16 15 15 15 15 15 15 14 14 13 13 13 13 12 12 12 12 12 11 11 11 11 11 11 11 11 11 11 11 11 11 11 11 11 11 11
19 19 19 19 19 19 19 19 19 19 19 19 18 18 18 18 18 18 17 17 17 17 17 17 17 17 17 16 16 16 16 16 17 17 17 17 17 17 17 17 16 16 15 16 16 16 15 15 15 15 15 15 15 14 14 14 14 13 13 12 12 11 11 11 11 11 11 11 10 10 10 10 10 10 10 10 10 10 10 10 10 10 10 10 10
19 19 19 19 19 19 19 19 19 19 19 19 19 19 18 19 19 18 18 17 17 17 16 16 16 16 16 15 15 16 16 16 16 16 16 16 16 16 16 16 15 15 14 14 14 14 14 14 14 14 14 14 14 14 13 13 12 12 12 11 11 11 11 11 11 10 10 10 10 10 10 10 9 9 9 9 9 9 9 9 9 9 9 10 9
18 19 19 19 19 19 19 19 19 19 19 19 19 18 18 18 19 18 17 16 16 15 15 15 15 15 15 15 15 16 15 14 14 14 14 14 14 14 14 14 14 14 13 13 13 13 13 13 12 12 12 12 12 12 12 12 12 11 11 11 11 11 10 10 10 9 9 9 9 9 9 9 9 8 8 8 8 8 8 8 8 8 8 9 9
18 18 18 18 18 18 18 18 18 18 18 18 18 18 18 18 17 17 16 15 15 15 14 14 14 14 14 14 15 15 14 13 12 13 13 13 13 13 13 13 13 12 12 12 12 12 12 12 12 12 12 11 11 11 11 11 11 10 10 10 10 9 9 8 8 8 8 8 8 7 8 7 7 7 7 7 7 7 7 7 7 8 8 8 8
18 18 18 18 18 18 18 18 18 18 18 18 18 18 17 17 16 16 15 14 14 13 13 13 13 13 14 14 14 14 13 12 12 12 12 11 11 11 11 11 11 11 11 11 11 11 11 11 11 11 11 11 10 10 10 10 9 9 9 9 8 8 7 7 7 7 6 6 6 6 6 6 6 6 6 6 6 6 7 7 7 7 7 7 8
18 18 17 17 17 17 17 17 17 17 17 17 17 17 16 16 15 15 14 13 13 12 12 12 12 12 13 13 13 13 12 12 11 11 11 11 10 10 10 10 10 10 10 10 10 10 10 10 10 10 10 10 9 9 9 9 8 8 8 7 7 7 7 6 6 6 6 6 6 5 5 5 5 5 5 5 6 6 6 6 6 7 7 7 7
17 17 17 17 17 17 17 17 17 17 17 17 17 16 16 15 15 14 13 13 12 12 12 12 12 12 12 12 12 12 11 11 11 10 10 10 10 9 9 9 9 9 9 9 9 9 10 10 9 9 9 9 8 8 8 7 7 7 7 7 7 6 6 6 5 5 5 5 4 4 5 4 4 5 5 5 5 6 6 6 6 6 6 7 7
17 17 17 17 17 17 17 17 16 16 17 16 16 16 16 15 14 14 14 13 13 12 12 12 12 12 12 11 11 11 10 10 10 10 9 9 9 9 9 8 8 8 8 8 8 8 8 8 8 8 8 7 7 7 6 6 6 6 6 6 6 6 5 5 4 4 4 4 4 4 4 4 5 5 5 5 5 5 6 6 6 6 6 6 6
16 16 16 16 16 16 16 16 16 16 16 16 16 16 15 15 14 14 14 13 13 12 12 12 12 12 11 11 11 10 10 10 9 9 9 8 8 8 8 8 8 8 8 7 7 7 7 7 7 7 7 6 6 6 6 6 6 6 5 5 5 5 4 4 4 3 3 4 4 4 4 4 5 5 5 5 5 5 6 6 6 6 6 6 6
16 16 16 16 16 16 16 16 16 16 16 16 16 15 15 14 14 14 13 13 12 12 12 11 11 11 11 11 10 10 10 9 9 8 8 8 8 7 7 7 7 7 7 7 7 6 6 6 6 6 6 6 5 5 5 5 5 5 5 4 4 4 4 4 4 3 3 4 4 4 4 4 5 5 5 5 5 5 5 6 6 6 6 6 6
16 16 16 16 16 16 16 16 16 16 16 15 15 15 14 14 13 13 13 12 12 12 11 11 11 10 10 10 10 10 9 9 8 8 8 8 7 7 7 7 7 7 6 6 6 6 6 6 5 5 5 5 5 5 5 5 5 5 4 4 4 4 4 4 4 4 4 4 4 4 4 4 5 5 5 5 5 5 5 6 6 6 6 6 6
16 16 16 16 16 16 16 16 16 15 15 15 14 14 14 13 13 13 12 12 12 11 11 11 10 10 10 9 9 9 9 9 8 8 8 8 8 7 7 7 7 7 6 6 6 6 5 5 5 5 5 5 5 5 5 5 5 4 4 4 4 4 4 4 4 4 4 4 4 4 4 5 5 5 5 5 5 5 5 6 6 6 6 6 6
16 16 16 16 16 16 16 16 15 15 15 14 14 14 13 13 13 12 12 12 11 11 10 10 10 10 9 9 9 9 9 9 9 8 8 8 8 8 7 7 7 7 6 6 6 6 5 5 5 5 5 5 5 5 5 5 5 4 4 4 4 4 4 4 4 4 4 4 4 4 4 5 5 5 5 5 5 5 5 6 6 6 6 6 6
16 16 16 16 16 16 15 15 15 15 14 14 14 13 13 13 12 12 12 11 11 10 10 10 10 10 10 10 10 9 9 9 9 8 8 8 8 7 7 7 7 7 6 6 6 6 5 5 5 5 5 5 5 5 5 5 5 5 5 5 5 4 4 4 4 4 4 4 4 4 4 4 5 5 5 5 5 5 5 5 5 6 6 6 6
16 16 15 15 15 15 15 15 15 14 14 14 14 13 13 13 12 12 12 11 11 11 10 10 10 10 10 10 9 9 9 8 8 8 8 7 7 7 7 7 6 6 6 6 6 6 6 6 6 6 5 5 5 5 5 5 5 5 5 5 5 4 4 4 4 4 4 4 4 4 4 4 4 4 4 4 4 5 5 5 5 5 5 5 6
Height
814 816 817 819 821 822 824 825 826 828 829 829 830 830 831 832 832 833 833 833 833 833 834 834 834 835 835 835 836 836 837 838 839 839 839 840 840 840 841 841 841 840 840 840 840 839 839 839 838 838 837 837 837 836 835 835 835 834 834 833 833 833 832 832 832 830 828 828 827 826 825 824 823 822 821 819 819 818 817 816 815 814 813 812 812
811 814 815 817 819 820 822 823 825 826 827 828 829 829 830 830 830 831 831 831 832 832 832 832 832 833 833 834 834 835 836 837 838 838 838 839 839 839 840 840 840 840 839 839 839 839 839 838 838 837 837 836 836 835 835 834 834 833 833 833 832 832 831 831 831 829 828 827 826 826 825 824 822 821 820 819 818 817 816 815 814 814 813 812 811
809 811 813 815 817 818 820 821 823 824 825 826 826 827 827 828 829 829 829 830 830 830 830 830 831 831 832 832 833 834 835 836 836 837 837 838 838 839 839 839 839 839 838 838 838 838 838 837 837 836 836 836 835 835 834 834 833 833 832 832 831 831 831 830 830 829 828 827 826 825 824 823 822 821 820 819 818 817 816 815 814 814 813 812 811
807 809 811 813 815 817 818 819 820 822 822 823 824 825 825 826 827 827 827 828 828 828 828 828 829 829 830 832 833 835 836 836 836 836 837 837 837 838 838 838 838 838 837 837 837 837 837 836 836 836 835 835 834 834 833 833 833 832 832 831 831 830 830 829 829 828 828 826 825 825 824 823 822 821 820 818 817 817 816 815 814 813 812 811 811
804 806 808 810 812 814 815 817 818 818 820 821 821 822 823 824 824 825 825 826 826 826 826 827 828 831 832 834 835 836 836 837 837 837 837 837 836 836 837 837 837 837 837 836 836 836 836 836 835 835 835 834 834 834 833 833 832 832 831 831 830 830 829 829 828 828 827 826 825 824 823 822 821 820 819 818 817 816 816 815 814 813 812 811 810
801 804 806 808 810 811 813 814 815 816 817 818 819 820 821 821 822 822 823 823 824 824 825 827 830 832 833 833 833 832 832 833 834 834 835 836 836 836 835 835 836 836 836 836 835 835 835 835 835 834 834 834 834 833 833 833 832 832 831 831 830 829 828 828 827 827 826 825 824 823 822 822 820 819 819 818 817 815 815 814 813 812 811 810 809
799 801 803 805 807 808 809 811 812 813 814 815 816 817 818 819 819 820 820 821 822 822 823 826 828 829 830 830 831 830 830 831 831 832 833 834 834 835 834 834 835 834 835 834 834 835 834 834 834 834 834 833 833 833 833 833 832 831 831 830 830 829 828 827 827 826 825 824 824 822 821 821 820 819 818 817 816 815 814 812 811 811 810 809 808
795 798 800 801 803 805 806 808 809 810 812 812 814 814 815 816 816 817 818 818 819 820 822 823 824 826 827 828 829 829 829 830 830 830 831 831 832 833 832 833 833 833 833 833 833 833 833 833 833 833 833 833 832 832 832 832 831 831 830 830 829 828 827 827 826 826 825 824 823 822 821 820 819 818 817 816 815 814 813 812 810 809 809 808 807
793 795 797 798 800 802 803 805 806 808 809 810 811 812 813 814 815 815 816 816 817 818 820 821 822 823 825 825 826 826 827 828 828 828 829 829 830 830 830 831 832 832 832 832 832 832 832 832 832 832 832 832 831 831 831 831 830 830 829 829 828 828 827 826 826 825 824 823 822 821 820 818 817 817 816 815 815 813 812 811 809 808 808 807 806
791 793 794 795 797 799 801 803 804 805 807 808 809 810 811 812 813 813 813 814 816 816 818 819 820 821 822 823 824 824 825 825 826 827 828 828 828 829 829 829 830 830 830 830 831 831 831 831 831 831 831 830 831 831 830 830 830 829 829 828 828 827 826 825 825 824 823 822 821 820 818 817 817 816 815 814 814 813 811 810 808 807 806 805 804
789 791 792 793 795 797 798 800 802 804 805 807 808 809 810 810 811 811 811 812 814 815 816 817 818 819 820 820 821 822 823 824 825 826 826 827 827 827 828 828 828 828 829 829 830 830 830 830 830 830 830 830 830 830 830 830 829 829 829 828 827 826 825 824 823 822 822 821 820 819 818 816 816 815 815 813 813 812 810 809 808 806 805 805 803
786 788 789 790 792 794 796 798 800 802 803 804 806 807 808 808 808 808 809 810 811 812 813 815 816 817 818 819 820 821 822 822 823 824 825 825 826 826 827 827 827 827 827 827 828 828 828 829 829 829 829 829 829 829 829 829 829 828 828 827 826 825 824 823 821 821 821 820 819 818 817 816 815 814 814 812 811 810 809 808 807 806 805 804 803
783 784 785 787 788 791 795 796 797 799 800 802 803 804 804 805 805 806 806 807 808 809 811 813 814 815 816 817 818 819 820 821 822 822 823 823 824 825 826 826 826 826 826 826 827 827 827 828 828 828 828 828 828 828 828 828 828 827 827 826 825 824 822 821 821 820 820 819 818 818 817 816 815 814 813 812 810 809 808 807 806 804 803 802 801
780 781 782 784 786 788 792 794 796 797 798 800 801 802 803 803 804 804 805 805 806 807 809 811 812 814 815 816 817 818 818 819 820 820 821 821 822 823 824 824 824 825 825 826 827 827 827 827 827 828 828 828 828 828 827 827 827 826 825 825 824 823 822 821 820 820 819 819 818 817 816 816 814 813 812 811 810 808 807 805 804 803 801 800 799
776 778 779 781 783 785 787 790 793 794 796 797 798 799 801 802 803 803 803 804 805 806 807 809 810 812 813 814 816 816 817 818 818 818 819 820 821 822 822 823 823 824 824 825 826 826 827 827 827 828 828 828 827 827 826 826 826 825 825 824 823 823 822 821 820 819 819 818 817 816 815 814 813 812 811 810 808 807 806 804 803 802 800 798 797
773 774 776 778 779 781 784 786 788 791 793 795 796 797 798 800 801 802 803 804 805 806 807 808 809 810 812 813 814 815 816 817 817 817 818 818 819 820 821 821 821 822 823 824 825 826 827 827 827 827 827 827 826 826 825 825 825 825 824 824 824 823 823 822 821 820 820 818 817 816 814 813 812 811 809 808 807 805 804 803 802 800 799 797 796
772 772 773 775 776 779 781 783 785 788 791 793 794 795 796 798 800 802 804 804 804 806 807 809 809 810 811 813 814 814 815 816 816 816 816 817 818 819 820 820 820 821 822 823 824 826 827 827 827 827 826 826 826 825 825 825 824 824 824 824 824 824 823 823 822 821 820 819 817 815 814 812 811 810 808 807 806 804 803 802 801 800 798 797 795
772 772 772 773 774 776 779 781 783 786 788 791 793 794 795 797 799 803 806 806 806 807 808 809 811 811 812 813 814 814 814 815 816 816 815 815 816 818 819 819 819 820 821 822 824 825 827 827 827 827 826 825 825 825 825 825 824 824 825 825 824 824 824 823 822 821 820 818 816 815 813 812 811 809 807 806 804 803 803 802 801 800 799 798 796
774 774 772 771 773 775 777 780 783 785 787 790 792 794 795 795 798 804 808 809 810 811 811 811 811 811 812 814 815 815 815 815 815 816 816 815 815 816 817 818 819 821 821 822 824 825 826 827 827 827 826 826 826 826 826 826 826 826 826 825 825 825 824 824 822 821 819 818 816 815 814 812 811 809 807 805 804 803 803 802 802 801 799 798 797
776 777 773 770 772 774 777 779 783 785 788 790 792 795 796 796 799 803 807 809 810 811 812 814 815 815 813 812 814 817 818 817 817 816 816 816 816 816 816 817 820 823 822 822 823 825 826 827 827 827 826 826 826 826 827 827 827 828 827 827 826 826 826 825 824 822 821 820 818 817 815 814 812 811 809 807 806 805 804 803 803 802 801 799 798
775 777 774 771 772 774 777 780 783 785 788 790 792 795 797 798 799 801 804 807 809 811 814 816 819 822 819 814 814 818 821 821 820 819 819 818 818 819 819 818 821 823 823 823 824 825 826 826 827 827 827 827 827 827 828 828 829 829 829 828 828 828 827 826 825 824 823 821 820 819 817 815 814 813 811 810 808 808 807 806 805 804 802 801 799
773 775 774 772 772 775 777 780 783 786 788 790 792 795 798 799 799 800 804 808 810 813 816 817 820 825 823 817 814 817 822 823 822 822 822 821 821 822 823 823 824 824 824 824 825 825 826 826 826 827 827 827 827 828 829 829 830 830 830 829 829 828 827 826 826 825 824 823 821 820 819 818 817 815 814 813 811 810 809 809 808 806 805 804 802
772 774 774 773 774 777 779 781 782 785 788 791 793 796 798 800 801 803 807 810 812 815 818 819 822 824 824 822 819 818 820 823 824 824 824 823 822 823 824 825 825 825 824 825 826 826 826 826 826 827 828 827 828 828 829 830 831 831 830 830 830 829 828 827 826 826 825 824 823 822 822 821 820 818 817 816 814 813 812 811 810 809 807 806 805
772 775 776 777 777 779 780 781 783 787 790 792 793 796 800 802 804 807 810 812 814 816 819 821 823 824 826 827 825 821 819 822 825 826 826 824 823 824 825 826 826 825 825 825 826 826 826 827 827 827 828 828 828 829 830 831 831 831 831 831 830 830 829 828 827 827 826 826 825 825 824 823 822 821 820 818 817 815 814 813 812 811 809 808 807
774 777 779 779 779 780 781 783 786 789 791 792 793 797 802 805 808 811 813 814 816 818 821 822 824 825 826 827 826 823 822 823 826 827 827 826 825 825 826 826 826 826 826 826 825 826 826 827 827 828 828 829 829 830 830 831 832 832 832 832 831 831 830 829 829 828 828 827 827 827 826 825 824 823 822 820 818 816 815 813 812 811 810 809 808
775 778 779 780 781 782 783 785 788 790 793 796 798 801 805 808 811 814 816 817 819 820 822 824 825 826 826 825 824 824 824 825 827 828 827 826 825 825 826 826 826 826 826 825 824 824 824 825 826 827 828 829 829 830 831 832 833 833 833 833 833 832 831 831 830 830 830 830 830 829 828 827 826 825 823 821 819 817 816 815 813 812 811 810 809
776 779 781 782 784 784 785 787 790 793 797 801 803 806 809 811 815 818 819 820 821 822 824 826 826 826 826 826 826 826 826 828 829 829 828 827 827 826 826 827 826 826 824 823 823 822 823 824 825 827 828 829 829 830 831 832 833 834 834 834 834 834 834 833 832 832 832 832 831 831 830 828 826 825 823 822 820 819 818 816 815 814 812 811 810
779 782 784 785 786 787 789 791 793 796 801 804 806 810 813 815 818 820 821 822 823 825 826 827 827 827 828 828 828 829 829 830 830 830 829 828 828 828 827 826 826 824 823 823 822 822 822 823 824 826 827 828 830 831 832 833 834 835 836 836 836 836 836 835 834 833 833 833 832 831 830 828 827 826 824 823 822 821 820 818 817 816 814 813 812
783 785 786 787 790 792 794 796 797 800 803 806 809 813 816 819 820 821 823 824 824 825 827 827 828 829 829 830 831 831 831 832 831 830 830 829 829 828 827 826 825 824 824 823 823 822 823 823 825 826 828 829 831 832 833 834 835 836 836 837 837 837 836 835 834 834 834 833 833 832 830 829 828 827 826 825 824 823 822 820 819 818 816 815 814
788 789 790 791 794 796 797 800 802 804 806 809 812 816 818 821 822 823 824 825 826 827 828 828 830 830 831 832 833 833 833 832 832 831 831 830 830 829 828 828 827 826 826 825 824 824 825 826 827 828 829 831 832 833 835 835 836 837 837 837 838 837 837 836 835 835 835 834 834 833 832 831 830 829 827 827 826 825 824 822 821 820 818 817 816
791 793 794 795 797 798 800 802 804 807 809 812 814 817 819 822 824 825 826 827 827 828 829 830 831 831 831 832 832 833 833 833 832 832 832 832 832 831 830 830 829 828 828 827 827 827 828 829 830 831 832 833 834 835 836 837 837 838 838 838 838 838 837 836 836 836 836 835 835 834 833 832 832 831 829 829 828 826 825 824 822 821 820 819 817
795 796 797 799 799 800 802 804 806 809 811 814 816 818 820 822 824 826 827 828 829 829 830 831 831 832 832 832 833 833 833 833 833 833 833 833 833 832 832 831 831 831 831 830 830 831 831 832 833 834 834 835 836 837 838 838 838 839 839 838 838 838 837 837 837 837 836 836 835 835 834 834 833 832 831 830 829 828 826 825 824 822 821 820 819
798 799 801 801 802 803 805 806 808 811 813 815 818 819 821 822 824 826 828 829 830 831 831 832 832 833 833 833 834 834 834 835 835 835 835 835 835 834 834 833 833 833 833 832 832 833 834 834 835 836 837 837 838 839 839 839 840 839 839 838 838 838 838 838 837 837 836 836 836 835 835 834 834 833 832 831 830 829 828 826 825 824 822 821 819
802 803 804 804 805 806 807 809 811 813 815 817 819 821 822 823 824 826 828 829 831 832 833 833 834 834 834 835 835 836 836 836 837 837 837 836 836 835 835 835 834 835 835 834 834 835 835 836 837 838 838 839 840 840 840 840 840 840 839 839 839 839 839 838 837 837 837 836 836 836 835 835 834 834 833 832 831 830 828 827 826 824 823 822 820
805 806 807 808 808 809 810 812 813 815 817 819 821 822 823 824 826 827 829 830 831 833 834 835 836 836 837 837 837 838 838 838 838 838 838 837 837 836 836 835 836 836 836 836 836 837 837 838 838 839 840 840 840 841 841 841 841 840 840 840 840 839 839 838 837 837 837 837 837 836 836 836 835 834 834 832 831 830 829 827 826 825 823 822 821
807 809 810 810 811 811 812 814 815 817 819 820 822 823 824 825 827 829 830 832 833 834 835 836 837 838 838 839 839 839 839 839 839 839 839 838 838 837 837 837 837 837 838 838 838 838 839 839 840 840 841 841 841 841 841 841 841 841 840 840 840 839 839 838 838 838 838 838 838 838 837 837 836 835 834 833 832 831 829 828 827 825 824 823 821
810 811 811 812 813 813 814 816 817 818 820 821 822 823 824 826 827 829 831 833 834 835 837 838 838 839 840 840 841 840 841 841 841 841 841 840 839 839 839 839 839 839 839 840 840 840 840 841 842 842 842 842 842 842 842 842 841 841 841 841 840 840 840 840 839 839 839 839 839 838 838 837 836 835 834 833 832 831 830 829 827 826 825 823 822
812 813 813 815 815 815 817 818 819 820 821 822 823 824 825 826 828 829 831 833 835 837 838 839 840 841 841 842 843 842 842 842 842 842 842 842 841 841 841 840 840 841 841 842 842 842 842 843 843 844 844 844 843 843 843 843 843 843 843 842 842 842 841 841 840 840 840 839 839 839 838 837 836 835 834 833 832 831 830 829 828 827 825 824 822
814 815 816 816 817 818 819 820 821 822 823 824 825 826 826 827 829 830 832 834 836 838 839 840 842 843 843 844 844 843 843 844 844 845 845 844 844 843 843 843 843 843 843 844 844 844 844 845 845 845 845 845 845 845 845 844 844 844 844 843 843 842 842 842 842 841 841 840 840 839 838 837 836 835 834 834 833 832 831 830 828 827 826 825 823
816 817 818 818 819 821 821 822 823 824 825 826 827 827 828 829 830 832 834 836 838 840 841 843 844 845 845 846 845 844 845 846 847 847 847 847 846 846 845 845 845 845 846 846 846 846 846 846 847 847 847 847 847 847 846 846 846 846 845 844 844 843 843 843 843 842 841 841 840 839 838 837 836 835 834 833 833 832 831 830 829 828 827 825 824
818 819 820 820 822 823 823 825 826 826 827 828 828 829 830 831 832 834 836 837 840 842 843 845 846 847 847 847 846 845 846 848 849 849 849 849 849 848 848 848 848 848 848 848 848 848 848 848 848 848 848 848 848 848 848 847 847 846 846 845 845 845 844 844 843 842 841 840 839 838 838 836 835 835 834 833 833 832 831 830 829 828 827 825 824
820 821 822 823 824 825 826 827 828 828 829 830 830 831 832 833 834 836 838 840 842 844 845 846 848 849 849 849 848 847 848 849 850 851 851 851 851 851 851 851 851 851 851 851 851 851 850 850 850 850 850 850 850 849 848 848 847 847 847 846 846 845 845 844 843 842 841 841 840 839 838 837 836 835 834 834 833 832 831 830 829 828 827 826 824
822 823 824 825 826 827 828 829 829 830 831 831 832 833 834 835 836 838 840 842 843 845 846 847 849 850 850 850 850 850 850 851 852 852 853 853 853 853 853 853 853 853 853 853 852 852 852 851 851 851 851 851 851 850 849 849 848 848 848 847 846 846 845 844 844 843 842 841 840 839 838 837 836 835 834 834 833 832 831 830 829 828 827 826 825
824 825 826 827 828 829 830 830 831 832 832 833 834 835 836 837 838 840 841 843 845 845 847 848 849 850 851 852 851 851 851 852 853 854 854 854 854 854 854 854 854 854 854 854 854 853 853 852 852 852 852 852 852 851 851 850 850 849 849 848 847 847 846 845 844 843 842 842 841 839 838 837 836 836 835 834 833 832 831 830 829 828 827 826 825
826 827 828 829 829 830 831 831 832 833 834 835 836 837 838 839 840 841 843 844 845 846 848 849 850 851 852 852 852 852 853 854 854 855 855 855 856 856 856 856 855 855 855 855 855 855 854 854 854 853 853 853 853 853 852 852 851 850 849 849 848 847 846 846 845 844 843 842 841 840 839 838 837 836 835 834 833 832 831 830 830 829 827 826 825
828 829 829 830 831 831 832 833 834 834 835 836 837 838 839 840 841 842 844 845 846 848 849 850 851 852 852 853 853 853 854 855 855 856 856 857 857 857 857 857 856 856 856 856 856 856 855 855 854 854 854 854 854 854 853 852 851 851 850 849 849 848 847 846 846 845 844 843 842 841 840 839 838 837 836 835 834 833 832 831 830 829 828 827 825
828 829 830 831 832 832 833 834 835 835 836 837 838 839 840 841 842 844 845 846 848 849 850 851 852 853 853 854 854 854 855 856 856 856 857 857 857 857 857 857 857 857 857 857 857 857 856 856 855 855 855 854 854 854 853 853 852 852 851 850 849 849 848 847 846 845 844 843 842 841 841 839 838 837 836 835 834 833 832 831 830 829 828 827 826
829 830 831 831 832 833 834 835 836 836 837 838 839 840 842 843 844 845 847 848 849 850 851 852 852 853 853 854 855 855 856 856 857 857 858 858 858 858 858 858 858 858 858 858 858 857 857 856 856 855 855 855 854 854 853 853 852 852 851 851 850 849 848 847 847 845 845 844 843 842 841 840 839 838 837 836 835 834 833 832 831 830 829 827 826
829 830 831 832 833 834 835 835 836 837 838 839 840 842 843 844 845 847 848 849 850 851 852 852 853 853 854 855 855 856 856 857 857 858 858 858 859 859 859 859 859 859 858 858 858 857 857 857 856 856 855 855 854 854 854 853 853 853 852 852 851 850 849 848 847 846 845 844 843 843 842 841 840 839 838 837 836 835 834 833 832 830 829 828 826
830 831 832 833 834 835 836 836 837 838 839 840 841 842 844 845 847 848 849 850 851 851 852 852 853 853 854 855 856 856 857 857 858 859 859 859 860 860 860 860 860 859 859 858 858 857 857 857 856 856 855 855 855 855 855 854 854 854 853 852 852 851 850 849 848 846 845 844 844 843 843 842 841 840 839 838 837 836 835 833 832 831 829 828 826
830 831 833 834 835 836 837 837 838 839 840 841 842 843 845 846 847 848 849 850 850 851 851 852 853 854 854 855 856 857 857 858 859 860 860 860 861 861 860 860 860 859 859 858 858 857 857 857 856 856 856 856 856 856 855 855 855 854 854 853 853 852 850 849 848 847 846 845 844 844 843 842 841 840 839 838 837 836 835 833 832 831 829 828 827
Wind_Speed
30 30 30 30 28 27 28 28 26 25 24 23 22 22 21 20 20 20 18 18 18 18 19 20 20 20 20 19 19 18 17 16 16 15 14 14 14 13 11 10 9 8 8 8 8 8 8 7 7 8 7 7 7 7 7 6 5 5 6 7 8 7 9 10 8 9 14 14 13 13 12 12 14 13 13 14 11 9 9 7 7 8 7 7 7
31 31 30 30 29 28 28 28 27 26 25 24 23 22 22 21 20 20 20 19 19 19 20 21 22 22 21 20 19 19 18 16 15 16 17 16 15 14 13 12 11 10 9 9 9 9 9 8 9 9 8 7 6 6 6 6 5 5 5 6 8 7 7 9 9 9 13 15 14 13 13 12 13 13 13 14 13 11 9 7 7 9 9 7 6
32 31 30 30 30 28 28 28 28 27 26 26 25 24 24 23 21 21 22 22 22 22 22 22 23 23 23 23 23 21 20 18 17 17 17 16 16 15 14 13 12 11 10 10 9 9 9 9 8 7 6 6 5 5 6 6 5 5 5 6 7 7 7 9 10 10 12 14 14 15 14 14 15 15 13 13 13 12 10 8 8 10 10 8 7
32 31 30 30 30 29 28 28 28 28 28 27 27 26 25 24 24 23 23 22 23 24 24 25 27 25 22 20 17 15 15 16 18 19 18 16 15 14 14 13 11 10 9 8 8 8 8 8 7 6 6 6 5 5 5 6 6 5 5 6 7 8 8 8 10 11 12 13 15 16 15 16 17 16 15 14 12 10 9 9 10 11 11 8 7
32 32 31 30 30 30 29 28 29 30 30 29 28 26 24 23 23 24 22 21 22 23 22 22 20 15 11 11 11 11 12 14 15 14 15 14 13 13 13 12 10 9 8 8 7 7 7 6 5 5 6 5 4 4 5 6 7 6 7 8 9 9 9 9 10 12 13 15 17 17 16 17 19 18 15 14 14 13 12 12 11 12 12 10 8
32 32 32 31 31 31 30 30 30 30 31 30 29 27 24 22 22 22 22 23 23 21 17 14 12 10 12 17 18 18 17 16 14 14 14 13 13 13 12 10 9 8 8 7 6 6 5 5 4 4 5 6 6 5 5 6 6 6 8 9 9 10 10 11 11 12 14 16 17 17 17 18 19 19 17 16 15 15 15 15 14 12 11 11 9
33 33 33 32 32 33 32 31 31 31 31 29 28 28 25 24 24 24 24 25 24 21 16 15 18 19 18 20 21 19 17 16 16 18 16 13 13 12 10 9 8 7 6 6 5 5 4 3 3 4 5 7 8 7 6 6 6 6 8 9 9 10 11 12 12 13 15 17 17 18 18 18 18 19 20 18 16 16 16 16 15 14 13 13 11
34 34 33 33 33 34 33 32 31 31 31 29 28 28 27 27 27 26 26 25 23 21 18 17 18 18 17 19 21 19 16 15 16 17 15 13 13 12 10 9 7 5 4 4 4 4 3 4 5 5 5 5 5 6 6 7 7 8 9 10 10 10 10 12 13 15 16 17 18 18 18 19 19 20 21 19 17 17 16 14 15 16 16 15 14
34 34 34 34 35 35 34 33 31 30 30 29 27 27 27 28 27 26 27 27 23 20 20 18 17 17 18 19 19 17 16 16 17 16 15 14 14 12 11 10 7 5 5 5 4 3 3 3 4 4 3 3 4 5 6 6 7 7 8 9 10 10 10 11 12 14 16 17 17 18 17 17 18 19 19 18 17 18 17 14 15 17 18 18 17
26 30 32 33 34 35 35 33 32 30 30 30 28 26 25 25 23 22 24 25 22 20 20 20 18 17 18 19 19 17 16 17 17 16 16 16 15 13 12 11 10 8 8 6 5 5 4 4 4 5 5 4 4 4 4 5 5 6 7 9 10 11 11 12 12 13 14 15 15 15 15 15 16 16 17 17 17 17 16 14 16 18 18 18 18
16 19 23 26 28 30 31 30 28 28 28 28 27 25 25 23 19 18 19 19 18 19 21 22 21 19 19 20 20 17 16 17 18 18 17 17 16 15 14 13 12 12 10 8 8 8 7 6 6 6 6 5 4 4 4 5 6 7 8 9 10 11 11 12 14 14 14 15 15 15 14 15 17 16 16 17 17 16 17 16 17 17 16 14 14
16 17 20 23 24 24 27 27 25 22 22 23 23 23 24 22 19 18 18 16 16 18 21 22 21 19 19 20 20 18 17 18 19 19 18 17 16 15 14 14 13 12 10 10 11 10 8 7 7 6 5 4 4 5 5 7 8 9 10 11 10 9 8 9 11 11 12 13 14 14 13 14 15 14 14 15 16 17 18 18 17 17 17 15 14
21 21 22 24 24 23 23 24 24 21 19 19 19 21 23 23 21 20 19 18 18 19 20 21 19 18 19 20 20 20 19 19 19 19 18 17 16 15 15 14 13 11 11 12 12 10 9 8 7 5 3 2 4 7 8 9 10 10 10 10 8 7 6 6 6 6 7 9 11 12 13 14 15 15 15 16 17 18 18 18 19 19 18 17 19
24 24 24 25 26 24 22 21 22 23 21 18 18 19 21 22 21 20 20 19 19 19 19 19 19 18 19 19 20 20 20 19 19 18 17 16 14 13 15 15 13 12 11 11 10 9 8 6 5 2 1 4 6 9 10 10 10 10 10 10 7 6 6 6 6 7 9 11 13 14 15 16 18 19 19 18 18 18 17 18 18 18 17 17 18
27 26 26 27 27 26 25 24 23 23 21 19 19 19 20 20 20 19 20 20 21 20 20 20 20 19 19 20 20 19 18 17 17 16 14 13 12 13 15 15 14 12 11 10 9 7 6 4 3 3 5 6 8 9 9 9 10 10 10 10 8 7 8 9 10 11 11 11 12 13 14 15 16 17 17 16 16 17 17 17 17 17 18 18 18
29 29 27 28 29 28 26 26 24 22 20 19 18 18 18 18 17 17 19 20 19 18 18 19 20 20 19 19 18 16 14 14 14 14 13 12 13 15 16 15 14 13 11 10 9 7 7 6 6 6 6 7 7 8 8 9 9 10 10 11 10 10 11 12 12 11 11 11 12 12 13 12 12 13 13 13 13 14 15 15 16 15 16 16 16
29 30 29 28 29 28 25 24 23 21 20 18 17 17 16 16 15 14 16 17 16 15 15 16 18 18 17 16 14 13 11 9 9 12 13 13 14 14 15 15 14 14 13 12 11 11 9 7 6 6 6 6 7 7 8 8 8 11 14 16 17 17 17 16 14 13 14 13 13 14 13 11 11 11 11 11 11 12 12 13 13 12 13 12 11
29 30 28 27 27 27 25 24 22 20 19 17 17 16 15 16 15 10 8 11 14 14 14 15 15 15 14 13 12 12 10 8 7 10 12 14 16 16 16 16 16 17 17 15 13 11 9 7 7 7 7 8 8 9 10 11 13 17 19 19 20 21 20 19 17 17 18 17 17 16 15 13 13 14 14 12 10 9 10 12 13 12 13 13 11
23 23 24 24 24 23 22 20 18 16 15 13 13 13 12 13 12 8 4 9 13 12 13 15 16 16 16 16 14 13 13 12 10 10 11 14 16 16 17 17 16 16 17 16 13 11 9 7 8 9 9 10 11 13 15 16 18 19 19 20 21 22 21 19 19 21 22 22 21 20 19 18 19 20 19 16 11 9 10 11 12 11 13 14 15
19 17 19 20 19 17 16 15 14 12 11 10 10 10 12 15 17 12 9 10 12 12 14 16 15 15 17 18 16 14 13 13 12 12 12 13 14 16 18 19 18 15 15 15 12 10 8 8 9 10 11 12 14 17 18 18 18 18 18 19 20 20 19 19 19 20 22 23 24 23 22 22 22 23 23 22 19 16 14 12 11 11 11 14 15
22 19 19 19 18 16 15 15 14 12 12 11 12 14 15 18 20 19 17 17 16 17 18 18 17 15 16 18 18 15 12 12 12 12 13 15 15 14 15 17 16 14 13 13 11 9 7 7 8 9 11 13 15 16 16 16 16 15 15 16 16 15 17 19 19 19 21 23 25 26 26 26 25 24 24 24 23 21 19 16 15 15 15 16 16
22 20 21 21 21 20 19 18 17 16 15 16 19 21 20 21 22 24 24 23 23 23 22 21 20 17 15 17 20 18 16 15 14 14 16 18 18 14 11 11 11 11 11 10 9 7 6 6 7 8 10 12 13 13 12 12 12 12 13 13 12 14 17 19 20 21 22 23 25 26 27 27 28 27 25 24 22 22 21 20 19 20 19 19 18
23 23 23 24 24 23 23 23 23 23 23 25 27 28 27 27 28 28 28 29 29 27 25 23 22 19 17 18 20 21 19 17 15 13 13 15 15 13 10 8 8 9 8 7 6 5 4 5 7 7 9 11 11 11 11 10 10 11 12 13 14 15 17 19 21 23 24 25 25 26 26 26 27 28 27 25 23 20 20 20 20 20 19 18 17
27 25 25 26 27 27 28 28 28 28 29 30 31 30 29 29 29 29 29 29 28 26 23 23 22 20 17 15 15 18 19 17 14 11 10 12 12 9 7 5 5 5 4 3 3 3 3 4 6 7 8 10 11 11 11 11 11 13 15 16 17 17 18 20 21 23 25 26 26 26 25 25 25 26 26 26 24 21 20 20 20 19 19 18 17
29 27 27 28 29 30 31 30 30 30 29 30 31 31 30 30 30 28 27 27 26 25 23 20 19 18 16 14 14 16 17 17 13 10 9 9 8 5 3 3 3 2 1 1 1 2 2 4 6 8 9 9 9 10 12 12 14 16 17 18 18 18 18 19 21 23 24 24 24 24 24 23 23 23 22 23 23 22 22 22 21 21 21 19 18
30 28 28 28 30 31 32 31 31 30 29 29 30 30 30 30 28 26 24 25 24 23 20 18 17 17 16 15 15 15 15 14 12 9 8 7 6 5 5 5 4 3 2 2 3 3 4 6 8 9 8 6 6 10 14 16 17 17 17 18 19 19 19 19 21 23 23 23 23 23 23 21 20 21 21 21 23 24 23 22 21 22 23 22 21
32 30 29 29 30 31 32 32 32 31 29 29 29 28 28 27 25 22 22 22 20 18 16 16 16 16 15 15 14 14 14 13 12 10 10 9 9 9 9 9 8 7 7 7 7 7 7 7 8 8 7 5 10 16 19 19 18 18 18 18 18 19 19 19 19 21 21 21 21 21 21 21 21 21 21 22 23 24 23 22 22 23 22 21 22
33 32 31 31 31 31 32 32 32 31 29 28 28 27 25 25 23 21 19 18 16 15 15 15 15 15 15 15 15 15 14 14 13 13 12 12 13 13 14 15 14 13 14 15 16 15 14 13 13 14 14 17 21 23 21 19 19 19 18 18 17 17 16 16 17 19 19 19 20 20 21 22 22 23 23 23 23 23 22 22 23 23 23 22 22
32 31 31 31 31 31 31 31 31 30 29 28 27 25 23 21 20 18 17 16 15 14 15 15 14 14 15 15 14 14 14 14 14 14 14 14 14 14 16 18 18 17 19 21 22 23 23 23 24 24 25 26 25 23 21 19 19 19 18 17 16 15 15 16 17 19 19 18 19 20 21 22 23 23 23 23 23 23 22 23 24 24 23 23 23
28 28 28 28 28 29 31 31 30 30 29 28 26 25 23 21 19 18 18 16 15 15 15 16 15 16 17 16 14 14 14 14 14 15 15 15 15 15 16 18 18 19 20 21 22 24 26 27 26 25 25 25 23 21 20 19 19 18 18 17 16 16 16 17 18 18 18 19 19 20 21 22 22 22 22 22 22 21 21 22 23 23 23 23 22
25 24 25 26 27 29 30 30 30 30 29 28 27 26 25 22 20 19 19 19 19 19 19 18 17 17 17 17 15 14 14 14 15 15 16 16 16 16 15 16 17 18 18 19 22 25 26 26 25 24 23 22 21 19 18 17 16 16 17 17 17 17 18 18 17 17 17 18 19 19 20 20 21 20 20 20 20 21 22 22 22 22 22 21 21
23 23 24 25 27 29 29 29 30 30 29 28 27 27 26 24 21 19 19 20 20 20 20 19 18 17 17 17 16 16 16 17 17 16 15 16 16 16 16 15 16 16 16 18 22 23 23 23 22 21 21 21 19 18 16 15 15 15 15 16 16 17 18 18 16 15 15 16 17 18 18 18 18 18 17 18 19 20 22 22 22 21 20 20 21
25 24 24 25 26 27 28 29 29 28 28 28 27 27 26 25 22 20 19 19 19 19 19 19 18 18 18 18 17 17 17 17 17 17 16 16 17 17 18 17 16 14 15 17 21 21 20 20 20 19 19 19 18 17 16 15 15 14 14 15 15 16 16 15 14 13 13 13 14 15 14 15 15 15 15 16 18 19 19 19 20 20 20 21 21
24 23 23 24 24 24 25 26 26 26 26 26 25 25 24 24 23 21 19 18 18 18 18 19 19 18 18 18 18 18 17 16 16 16 15 15 15 15 16 17 16 14 13 15 17 18 19 19 19 19 19 18 17 16 15 14 13 13 13 14 14 13 12 11 11 12 12 12 12 13 13 12 13 14 15 16 16 17 17 18 18 19 20 21 21
23 23 23 22 22 21 20 20 20 20 20 19 20 20 21 21 21 20 20 20 19 18 18 18 19 19 19 18 18 17 16 15 14 12 12 12 11 11 13 16 16 14 14 14 15 16 17 18 19 18 18 16 14 13 12 11 11 11 11 11 11 10 9 10 11 11 11 12 13 13 13 13 13 13 14 15 16 17 18 18 17 17 18 18 18
25 25 24 23 24 24 22 21 19 18 17 16 16 16 16 15 15 16 17 19 19 18 17 17 17 18 17 16 15 14 13 13 12 11 10 10 9 10 13 15 15 14 15 15 16 18 18 18 17 16 15 13 11 10 10 10 10 10 10 10 10 10 11 12 12 11 12 12 13 13 13 13 14 14 14 14 15 16 16 17 16 16 15 15 16
24 23 23 23 24 26 27 27 26 25 24 23 21 19 17 16 14 14 15 17 18 18 17 16 16 16 15 15 14 14 15 14 14 14 14 13 13 14 16 17 16 16 17 17 17 18 18 17 16 15 13 12 11 10 10 10 11 11 11 12 12 13 14 14 13 12 13 13 13 14 14 14 15 15 15 15 15 15 16 16 15 15 14 14 14
23 23 23 23 24 25 26 27 27 26 26 26 25 24 23 21 19 18 19 20 19 18 16 15 15 15 15 16 16 16 17 17 17 17 18 18 18 19 20 19 19 19 19 18 17 17 17 16 15 14 14 13 12 12 12 12 13 13 13 13 14 13 13 12 12 13 13 14 15 15 16 16 16 15 14 14 14 16 16 15 15 15 15 15 14
23 23 23 23 23 24 25 25 25 24 24 24 24 24 24 24 23 23 23 22 21 19 18 17 17 17 18 19 17 15 17 19 21 21 21 21 20 20 20 20 21 20 19 19 18 18 18 18 16 15 15 14 13 13 13 13 13 13 12 12 12 12 12 12 13 13 14 15 15 16 16 16 15 14 12 11 13 15 15 15 15 15 16 16 15
23 23 22 21 22 22 22 22 22 21 21 22 22 23 23 24 24 25 25 25 24 24 23 23 22 20 19 19 18 18 21 23 23 22 22 22 21 21 21 21 21 20 18 18 17 17 17 16 15 14 14 13 13 13 13 12 12 12 12 12 12 13 13 13 14 14 15 16 16 16 16 15 14 12 11 11 12 14 14 14 15 15 16 17 16
23 23 22 21 21 21 20 20 20 19 19 18 18 19 22 24 25 27 28 28 28 27 26 26 24 22 20 19 19 20 23 24 23 22 22 22 22 22 22 21 20 19 18 17 16 16 15 15 14 13 13 13 13 12 12 12 12 13 13 13 13 14 14 15 16 17 17 16 16 15 14 14 13 12 11 12 13 13 13 14 15 15 15 16 16
22 23 22 21 20 20 20 19 18 17 17 17 17 20 24 27 29 29 29 28 28 27 27 26 24 22 20 19 18 19 22 23 23 22 22 22 22 23 22 21 19 19 18 17 16 15 14 14 14 13 13 12 12 12 12 13 13 14 14 14 15 15 16 16 16 17 17 16 15 13 12 12 11 11 11 13 14 14 14 16 16 16 16 16 17
21 21 20 19 18 18 18 18 18 18 20 21 22 24 26 28 29 29 28 27 27 27 26 25 24 22 21 19 18 20 22 22 21 21 20 20 21 21 21 20 19 17 16 15 14 13 13 13 13 13 12 12 11 11 12 13 13 13 14 14 14 15 15 15 16 16 16 15 14 13 12 11 11 11 12 14 15 14 15 16 17 17 17 18 18
20 20 19 18 17 16 15 17 20 22 23 23 24 24 26 27 28 27 27 26 25 25 25 23 22 20 19 18 18 20 21 21 20 20 19 18 18 18 18 17 17 16 15 14 13 12 12 13 13 13 13 12 12 13 14 14 14 14 14 14 14 15 15 15 15 14 14 14 15 14 13 12 12 12 12 14 16 16 16 17 18 18 18 18 18
19 19 18 18 17 15 15 18 21 23 22 21 22 22 23 25 26 26 25 24 23 23 22 21 19 19 18 17 18 19 19 18 17 17 17 16 16 16 16 15 15 16 16 14 13 12 12 12 12 12 13 13 13 14 15 15 15 15 15 15 15 15 16 15 14 12 12 13 15 15 14 12 12 13 14 15 16 17 17 18 18 18 19 19 19
16 16 17 17 17 18 19 20 20 20 19 20 21 22 23 24 24 24 24 23 22 21 21 20 19 19 18 17 17 17 17 16 16 15 15 14 14 14 14 14 15 16 16 15 14 13 12 12 12 12 12 13 14 14 15 15 14 14 14 15 15 15 15 15 14 13 12 13 14 15 14 13 13 14 14 15 16 17 18 18 18 19 19 19 19
16 15 15 16 16 17 18 18 18 18 19 19 20 22 24 24 24 23 23 22 21 21 21 20 19 18 17 16 16 15 15 15 15 14 14 13 12 12 12 12 13 14 14 14 14 13 12 11 11 11 12 12 13 13 13 13 13 13 14 15 16 15 15 14 14 13 12 12 13 14 14 13 13 14 15 16 17 18 18 18 18 18 19 18 19
17 16 17 17 16 16 16 16 18 20 21 22 23 23 23 24 23 23 22 21 20 20 20 19 18 17 17 16 16 15 14 14 13 13 12 12 11 11 11 10 11 12 12 12 13 14 13 12 10 10 10 11 10 11 12 12 12 12 14 16 16 16 15 15 14 14 13 11 10 12 12 12 13 15 16 17 17 17 16 16 16 17 18 18 18
18 18 18 17 16 15 16 18 20 22 23 24 23 23 23 23 22 22 21 21 20 20 20 20 19 18 16 16 14 12 11 10 10 9 9 9 9 11 11 11 11 10 10 11 11 12 13 12 11 11 11 10 9 9 10 12 12 12 14 16 15 15 15 15 15 15 13 10 9 10 11 11 12 14 16 16 16 15 15 15 15 16 17 17 18
20 19 18 18 18 17 18 20 21 22 22 22 23 23 23 22 21 21 21 21 21 20 19 18 16 14 11 9 7 6 5 5 5 4 4 4 5 6 8 9 8 8 8 9 9 10 11 11 11 11 10 9 8 8 9 11 12 13 14 15 15 15 16 16 15 15 14 10 8 8 10 10 11 13 16 16 16 15 15 15 15 16 16 16 17
20 19 18 18 18 18 18 19 20 20 19 20 20 21 21 21 20 19 19 18 17 15 14 12 11 10 9 7 6 5 5 5 5 5 4 4 4 6 6 6 6 6 6 7 8 8 8 9 10 10 9 8 7 7 8 9 11 12 12 13 13 15 16 16 16 16 14 10 7 6 8 10 11 13 15 16 15 15 14 14 15 15 15 16 16
Wind_Direction
201 203 206 206 208 211 214 217 217 218 221 221 221 221 222 225 228 231 235 236 233 233 233 233 234 231 227 228 228 227 230 233 234 235 237 238 239 242 246 247 250 254 257 256 258 269 281 287 290 293 294 298 302 299 300 315 321 303 286 280 272 261 257 251 246 271 291 301 309 315 318 316 319 327 329 327 328 326 326 322 322 337 348 339 309
200 203 206 206 209 212 214 217 219 220 221 222 224 225 226 226 225 228 232 232 233 235 234 231 229 228 229 229 229 228 230 232 235 236 235 236 239 240 240 242 248 257 260 259 260 266 276 285 290 293 295 299 302 301 308 322 323 305 292 284 279 273 261 257 257 267 285 298 308 314 319 318 319 328 329 322 319 319 319 322 326 332 337 332 301
200 202 204 207 209 211 214 216 219 220 221 222 225 227 230 231 228 227 230 232 234 235 236 234 230 227 229 230 229 231 232 232 235 234 233 238 241 239 237 242 252 261 262 260 262 264 274 287 293 293 296 301 304 306 309 310 309 303 296 290 285 283 279 271 265 267 280 295 306 312 317 320 322 329 331 322 318 316 313 318 324 326 331 325 292
199 200 202 206 209 210 213 216 218 219 221 223 226 228 232 234 232 231 235 237 236 237 240 240 233 227 227 228 233 243 247 248 245 236 232 236 237 235 237 241 248 257 260 258 258 264 273 282 290 293 294 302 307 307 307 302 299 295 292 295 293 289 289 281 272 273 278 287 298 307 314 318 322 329 332 328 325 321 316 318 320 322 329 325 293
198 200 202 205 208 210 213 215 217 219 221 223 226 229 233 234 231 231 235 238 238 239 241 237 231 227 227 234 245 252 259 269 268 251 241 240 235 232 235 241 249 256 258 259 259 265 273 281 292 292 289 302 314 316 322 314 303 303 303 308 311 302 292 287 280 275 273 279 291 303 312 315 318 325 331 331 327 323 322 322 319 317 322 324 303
197 199 202 205 207 210 212 215 217 218 220 222 224 228 232 232 231 232 235 238 240 242 241 233 227 229 234 236 236 234 235 244 248 238 232 235 234 229 228 239 252 255 253 257 263 267 276 289 301 299 291 300 303 306 325 322 309 313 317 316 317 307 292 287 283 276 276 281 288 297 306 311 315 319 326 328 321 315 315 318 317 315 316 320 312
197 199 202 205 207 209 211 214 217 218 219 221 221 224 228 231 232 234 236 238 240 241 241 233 227 230 235 236 236 237 236 235 231 223 220 223 228 226 223 233 244 246 246 249 250 256 270 280 295 312 313 310 303 297 304 307 298 299 305 306 310 307 296 290 287 283 283 285 288 293 299 306 309 311 317 320 314 306 305 305 307 312 315 315 313
197 199 202 204 207 209 211 214 216 217 219 220 220 222 225 228 231 235 239 239 235 231 232 230 227 230 235 237 238 238 237 234 227 221 220 224 225 224 224 227 230 230 231 230 236 248 260 265 277 297 305 303 294 279 276 281 285 289 296 301 306 307 303 297 292 289 286 285 288 291 294 299 303 307 313 315 310 305 304 296 292 302 311 311 311
197 199 202 204 207 209 211 213 215 216 217 218 221 225 227 228 233 238 239 234 225 222 227 231 229 230 232 233 235 233 232 232 226 221 220 220 218 218 219 219 218 220 224 225 232 238 234 245 251 252 257 257 252 252 259 274 289 299 306 314 320 319 315 309 302 296 291 287 288 291 294 296 300 307 312 313 309 307 306 297 291 299 308 307 307
199 201 203 205 208 210 210 212 215 215 216 219 222 226 228 229 232 234 229 222 219 220 227 230 230 229 228 225 224 224 226 226 221 216 213 212 213 214 213 214 214 217 225 226 215 197 183 184 192 199 216 231 234 240 259 286 304 316 323 330 336 333 327 321 314 309 302 292 289 295 297 295 301 308 310 311 312 308 303 300 299 303 308 307 306
194 199 201 202 207 209 208 209 211 212 215 218 221 224 227 227 224 220 215 212 214 218 223 225 224 223 222 219 217 217 217 215 213 212 210 211 216 217 211 211 213 216 224 221 202 188 185 192 199 202 213 222 235 259 287 307 316 324 328 329 332 331 327 319 313 312 308 299 295 298 296 296 303 309 309 310 310 306 303 302 302 303 306 307 303
180 185 191 195 199 201 201 201 201 202 205 211 218 225 227 222 213 207 203 199 200 204 209 215 216 214 213 213 214 215 213 211 212 214 214 214 216 215 209 206 207 209 207 199 193 193 200 209 210 210 221 242 274 300 315 322 324 325 325 324 324 321 313 309 311 313 310 304 303 305 306 309 312 312 314 316 313 309 307 304 301 300 298 292 285
184 185 188 190 189 190 193 195 195 196 198 204 213 219 219 213 206 202 198 193 193 194 199 205 208 209 209 210 213 214 212 211 213 215 217 217 216 216 212 206 202 195 189 188 192 199 205 208 207 211 244 300 327 334 336 333 330 327 325 327 329 324 313 310 318 327 328 325 326 324 323 325 321 315 314 315 313 312 309 305 303 297 285 277 277
188 188 187 187 187 188 191 194 197 199 199 201 206 211 211 209 205 202 198 193 192 191 193 197 200 204 207 210 211 211 209 212 215 218 220 221 219 214 210 207 200 188 182 185 189 194 199 202 197 183 16 359 351 347 343 339 338 337 339 346 354 351 339 331 329 333 335 337 335 330 325 323 318 313 311 311 309 307 303 302 303 296 283 279 282
187 189 187 186 189 190 192 196 200 202 202 204 206 207 209 209 207 204 199 197 198 198 196 196 197 200 204 207 206 205 206 209 213 215 215 211 204 197 196 196 190 180 175 177 181 182 177 159 125 79 36 10 357 353 351 351 353 351 354 3 11 4 353 348 344 342 341 341 339 335 331 327 321 316 314 314 310 305 299 293 293 294 293 294 293
186 187 186 187 188 189 192 195 197 198 200 200 201 202 205 207 207 206 201 196 194 191 187 187 190 192 194 196 195 193 195 201 204 203 198 192 189 188 188 186 181 173 166 163 157 143 124 106 82 53 30 15 6 3 4 4 4 5 14 30 38 36 29 24 20 17 15 12 7 359 352 344 334 326 323 323 320 317 311 300 295 297 297 294 293
189 187 187 187 186 186 188 187 185 187 191 194 196 196 194 193 193 196 194 185 176 173 174 176 181 182 181 181 179 176 172 177 188 189 185 183 184 182 180 177 169 157 146 139 133 120 104 85 61 42 32 30 27 24 25 26 34 47 55 57 54 47 42 40 40 39 34 27 20 15 9 359 350 341 334 331 330 331 329 320 316 317 312 303 299
194 192 189 185 181 182 185 183 181 183 186 190 192 188 186 187 187 183 160 133 132 151 165 161 160 162 158 155 158 157 147 142 163 175 173 173 171 165 160 157 151 144 136 127 120 110 92 69 52 47 49 53 51 52 57 62 68 72 68 60 52 43 34 32 35 37 36 33 30 29 25 18 9 1 353 344 333 329 331 329 328 330 324 318 316
196 194 188 183 179 181 182 181 185 188 186 189 194 191 185 176 170 170 142 109 113 133 148 144 143 144 139 133 130 128 123 122 130 143 151 157 156 148 142 138 135 134 130 121 112 104 90 69 57 57 63 70 73 74 75 74 74 72 64 56 49 41 35 35 37 37 37 37 37 36 34 30 26 23 20 16 7 358 352 347 341 335 327 323 320
191 186 177 171 169 174 177 177 181 181 174 176 177 165 144 130 130 139 152 144 134 130 124 115 111 117 125 123 110 95 94 100 107 115 125 131 131 129 127 124 121 122 124 120 113 106 92 73 67 73 82 85 86 84 79 75 71 67 61 53 45 38 38 44 46 44 43 42 42 40 37 34 32 31 31 30 28 23 16 11 6 354 343 340 334
171 161 151 145 141 144 151 156 158 153 152 154 145 133 124 121 124 130 133 132 132 128 119 106 94 91 101 108 100 84 75 80 90 98 100 97 97 104 109 110 114 122 124 119 113 103 89 78 79 87 94 95 94 90 83 76 72 64 53 47 42 40 45 50 53 53 50 46 45 42 39 36 34 33 32 32 31 29 26 26 26 22 20 19 13
151 141 132 129 128 130 132 134 134 130 129 128 122 119 120 121 121 123 123 123 124 123 118 112 106 95 89 97 101 93 80 73 75 85 91 91 91 92 89 91 106 120 121 118 115 106 93 93 98 100 101 101 97 91 83 75 63 49 42 46 52 54 56 58 59 58 53 48 45 41 37 35 33 32 32 33 32 32 31 30 29 28 28 30 32
131 123 120 122 122 123 123 123 123 121 119 119 116 114 115 116 116 117 120 120 119 118 115 111 106 96 85 89 96 94 86 74 64 66 78 87 92 95 94 96 107 116 121 128 131 125 112 112 120 123 115 105 94 83 72 60 51 51 59 67 67 63 62 64 62 59 54 50 46 41 36 32 31 30 30 31 30 29 29 27 25 25 26 24 25
122 116 116 117 115 115 115 116 117 118 118 119 117 115 115 115 114 115 117 117 116 116 117 116 112 106 101 97 94 93 90 83 76 75 78 81 85 89 97 113 121 124 132 140 133 130 123 127 141 141 124 109 95 78 67 66 74 82 81 74 69 66 66 65 62 60 56 50 45 41 38 34 31 29 29 30 30 28 26 24 22 22 22 20 19
118 115 114 111 109 110 110 111 112 113 115 117 117 117 117 116 114 114 115 117 118 118 118 118 117 119 120 111 98 92 90 88 92 99 93 86 89 97 116 140 144 138 139 91 85 122 131 143 156 151 132 116 97 76 75 86 93 90 81 73 70 69 67 66 64 61 56 50 45 42 38 36 33 31 29 30 30 28 25 23 23 23 20 18 19
110 108 107 106 107 107 106 105 106 106 109 112 114 116 117 115 114 115 116 117 118 119 119 120 121 122 119 108 98 96 97 99 104 108 105 103 109 113 118 127 130 123 108 95 107 132 136 144 159 161 151 130 90 81 90 97 96 90 84 79 75 71 68 66 64 60 54 48 43 38 34 31 29 28 28 28 27 27 24 21 20 20 18 18 21
104 103 103 104 106 105 104 104 105 106 109 111 112 114 116 115 115 116 117 119 120 121 123 124 122 117 109 103 101 100 100 102 102 100 99 98 99 100 99 96 94 93 92 97 108 122 133 145 156 161 158 124 99 100 102 99 94 90 85 80 76 73 69 66 62 57 50 42 37 34 31 27 25 24 25 26 27 27 25 23 21 20 19 23 27
101 102 103 103 103 103 105 106 108 109 111 113 114 115 117 119 121 122 123 124 124 126 128 126 120 116 112 109 106 101 95 91 86 81 78 78 83 86 79 72 75 84 90 94 99 104 111 119 122 119 115 110 106 105 102 96 91 88 83 79 76 71 65 59 54 50 44 37 32 30 27 26 26 26 26 28 28 26 25 25 25 24 25 30 31
101 102 103 104 104 105 106 107 109 110 112 113 114 116 119 121 122 123 124 125 123 124 127 125 120 117 114 108 102 95 88 78 70 67 66 67 71 71 66 64 73 87 94 95 99 102 103 105 106 106 107 108 106 102 98 95 92 86 80 76 71 62 54 49 48 47 43 38 35 33 31 31 29 27 27 28 28 25 23 23 24 22 22 25 25
101 102 104 105 108 110 109 109 110 111 112 113 113 114 116 117 116 114 113 115 116 117 117 118 116 112 108 103 94 86 78 68 62 61 63 64 63 61 62 66 77 89 94 96 100 102 100 99 100 103 106 107 105 102 99 95 90 84 80 74 67 61 56 52 52 51 48 45 43 40 37 35 31 29 29 29 27 25 23 21 20 18 18 18 16
105 107 110 112 114 115 114 114 114 114 115 116 117 116 116 115 113 110 109 111 112 110 108 107 106 101 96 92 86 77 70 65 61 63 66 65 59 56 60 69 82 89 91 92 96 98 98 98 99 103 106 107 106 104 100 93 88 86 83 77 71 66 62 59 55 51 47 46 44 41 38 36 34 33 34 32 28 26 23 20 17 14 15 16 13
111 111 114 116 118 118 117 117 118 118 118 120 120 121 121 119 115 113 112 111 108 106 103 101 97 91 87 84 79 74 69 66 65 69 72 68 61 59 61 70 84 92 90 90 94 98 99 101 102 103 106 107 108 106 101 94 91 87 83 78 73 67 63 59 54 50 47 45 42 38 36 35 34 35 35 31 27 24 21 18 16 15 13 12 10
114 115 117 118 118 119 120 120 120 121 122 123 124 124 124 123 121 119 116 111 107 104 100 94 88 85 83 78 74 71 69 67 68 71 74 72 69 67 68 73 84 91 89 91 97 102 104 105 107 108 109 109 109 106 99 94 92 87 79 74 69 66 63 60 55 53 50 45 41 40 37 33 32 33 31 28 25 22 19 16 14 13 11 7 3
118 120 121 121 121 122 122 123 123 124 126 127 129 129 127 127 127 126 122 116 110 104 97 90 87 85 83 80 77 74 71 69 69 69 69 70 69 67 69 76 84 90 90 93 101 108 110 111 113 114 112 109 105 100 94 91 87 83 77 72 71 72 71 63 55 52 47 42 43 44 41 38 36 33 28 23 21 19 17 14 11 8 7 3 360
120 120 118 116 117 122 127 130 131 132 132 133 134 133 132 132 131 128 125 120 115 109 101 93 88 86 83 79 77 75 71 69 67 65 62 61 60 60 67 72 76 85 95 102 106 109 111 112 114 114 113 109 104 99 96 95 93 90 86 84 86 88 81 66 57 51 47 46 46 45 42 39 36 31 24 19 17 15 14 11 9 7 5 4 3
117 114 111 108 109 112 117 124 128 130 129 131 134 137 138 138 134 130 127 125 120 114 107 98 91 87 82 73 67 67 66 63 62 61 58 55 54 63 71 71 71 83 98 105 107 107 108 110 113 116 116 113 109 103 98 100 104 106 102 96 94 89 78 69 63 57 53 49 45 41 37 32 27 22 18 14 13 12 11 11 11 9 8 8 9
114 110 108 109 109 109 110 113 115 115 114 114 116 118 121 125 128 129 130 129 124 117 109 100 90 81 73 67 67 73 77 78 79 78 75 72 71 74 79 82 85 91 96 101 104 106 107 109 114 115 113 109 105 101 98 97 98 98 94 89 85 79 72 66 60 52 46 40 33 27 22 18 15 12 8 7 8 8 8 10 13 12 10 11 13
111 110 109 111 112 112 111 110 111 111 110 109 107 107 109 114 117 119 123 126 124 116 105 91 80 75 78 82 87 90 89 87 84 79 75 75 76 77 80 84 88 90 91 94 99 102 102 102 104 102 99 97 94 92 92 90 86 82 79 76 73 67 60 52 43 35 29 23 17 12 5 3 2 1 359 2 6 6 4 6 12 13 10 11 14
112 111 111 110 110 111 111 110 109 108 107 106 104 104 108 115 118 117 116 116 111 102 93 86 84 87 93 96 96 95 89 81 77 75 74 75 76 79 82 86 88 89 90 91 94 96 95 94 93 91 89 87 84 81 80 77 74 70 65 60 56 50 43 37 31 25 20 14 9 3 359 357 356 355 357 5 9 7 3 5 9 11 10 10 12
118 114 112 110 109 109 109 108 107 106 106 105 103 101 104 112 118 115 110 105 101 96 93 91 90 91 95 97 97 96 92 85 81 80 79 78 78 81 85 88 90 91 91 91 93 94 94 92 91 89 85 81 78 76 73 70 67 62 56 51 47 44 40 34 27 20 15 11 6 3 360 358 356 355 1 11 13 9 7 7 9 10 10 10 9
122 117 115 113 111 110 109 107 107 107 107 108 106 102 103 111 117 114 108 104 102 99 96 94 92 92 94 95 95 95 94 91 88 86 84 81 80 81 82 86 89 90 90 90 89 89 90 89 87 87 85 82 77 73 67 63 59 55 50 47 43 39 34 27 21 17 13 10 8 4 0 358 359 3 11 15 13 11 11 11 8 8 9 8 7
121 118 117 116 113 112 111 110 109 108 108 109 109 107 108 112 115 114 111 109 107 105 101 99 98 98 97 94 94 95 95 93 92 89 85 81 79 78 78 79 81 82 81 80 78 78 79 81 80 80 78 75 70 64 59 55 50 45 42 39 35 31 27 21 16 13 11 10 9 7 3 3 6 12 17 18 14 11 12 10 7 5 6 5 3
121 118 116 115 115 115 115 113 111 110 111 112 111 110 112 115 116 116 114 113 112 110 108 105 103 100 96 94 93 95 95 95 93 90 85 81 78 77 77 76 77 76 75 73 72 71 71 73 75 76 73 70 64 59 55 51 46 41 37 33 29 27 23 18 15 14 14 15 14 11 9 10 13 17 20 19 14 12 11 9 6 3 1 359 357
120 119 118 118 119 122 123 118 114 114 115 114 112 111 113 117 119 119 118 116 114 112 110 109 106 103 99 95 92 92 93 94 93 91 89 85 82 79 78 76 74 73 73 72 71 72 72 74 76 74 71 66 61 55 53 50 45 40 37 34 32 30 26 22 19 19 19 18 16 13 11 13 17 20 20 18 14 12 10 8 4 1 358 356 355
124 123 123 122 118 120 126 125 120 117 116 115 114 113 115 118 120 121 120 118 115 113 111 110 108 105 101 95 92 91 92 94 95 95 93 90 85 81 76 71 66 65 65 66 68 69 70 72 72 70 67 64 58 53 49 45 42 40 39 38 37 34 30 25 21 18 17 16 15 14 13 14 18 20 18 15 14 12 9 6 2 358 356 355 353
132 129 129 126 119 117 121 124 122 119 118 118 118 117 118 120 122 122 121 120 118 115 115 113 111 109 104 99 95 95 95 96 98 99 97 92 85 79 72 66 61 58 57 58 60 63 68 70 68 66 66 61 53 47 44 41 41 44 45 42 39 35 30 25 19 15 12 12 11 12 13 16 19 19 17 14 12 11 8 4 1 358 354 351 349
135 134 135 134 128 121 120 122 123 122 122 122 121 120 120 121 122 121 121 121 119 118 118 115 111 109 106 102 100 100 98 96 96 97 95 90 82 74 68 63 59 55 52 53 56 61 69 74 72 68 62 52 42 39 39 41 44 48 45 40 35 31 27 21 16 12 10 8 8 10 14 19 21 20 18 15 12 9 6 3 1 358 354 349 347
137 133 135 137 136 132 130 129 129 128 125 122 122 121 121 122 123 122 123 123 122 121 120 117 114 113 112 111 110 106 99 93 91 90 88 81 71 65 62 60 58 55 53 54 56 57 60 63 65 61 52 42 37 39 40 40 44 46 40 34 31 29 24 18 13 10 8 7 7 10 15 21 24 23 19 15 11 7 5 4 3 2 359 357 357
145 139 138 141 143 143 142 138 135 133 130 125 123 123 123 123 124 125 127 127 128 128 126 123 120 117 115 114 112 104 93 85 82 81 79 73 64 59 59 58 57 53 51 53 54 52 49 49 50 50 46 42 43 46 43 40 41 39 32 28 28 26 21 16 12 8 6 4 5 11 16 22 26 25 19 13 8 6 6 8 8 8 8 10 12
144 138 134 134 133 134 137 138 136 135 134 130 127 126 126 126 128 130 132 131 129 128 125 121 116 112 107 105 103 95 89 90 93 94 95 87 75 72 74 72 68 61 58 59 59 53 46 43 41 41 45 48 47 43 38 36 36 32 27 25 26 24 21 17 13 8 5 2 2 9 14 19 26 25 18 12 8 7 7 10 12 12 13 14 17
140 136 132 130 128 127 132 137 138 138 137 136 133 132 131 131 132 133 133 131 128 124 120 116 112 109 109 111 115 121 128 133 135 137 138 132 122 119 116 105 90 82 78 71 63 58 55 48 40 39 47 52 44 34 29 29 27 25 24 24 25 24 22 18 13 8 5 3 3 11 17 22 26 21 13 8 7 6 6 10 13 12 11 11 13